Wind_Speed
47 47 46 45 44 43 41 42 41 40 39 42 58 72 77 76 84 86 90 82 82 81 84 81 78 75 78 74 71 67 65 64 64 59 60 56 55 52 49 48 48 47 43
51 51 52 52 53 49 48 47 46 48 45 45 45 45 50 62 72 82 86 84 82 88 88 84 82 80 77 74 73 70 65 64 67 62 61 60 57 56 54 51 49 46 47
60 59 58 58 57 57 53 52 50 51 53 52 51 50 47 48 52 64 81 89 85 80 78 85 83 84 84 84 79 69 67 67 67 64 64 61 62 59 58 56 56 53 51
62 62 63 62 60 59 59 59 58 58 57 57 55 54 52 53 54 55 56 57 64 76 73 65 63 70 74 73 74 71 66 70 68 67 66 63 61 62 62 63 61 59 57
71 70 68 67 68 69 69 65 67 65 63 61 59 60 58 57 59 59 55 58 55 56 65 67 65 69 68 69 72 75 71 71 63 66 68 68 66 66 63 61 64 62 62
75 74 73 75 73 74 71 71 71 68 67 65 64 61 64 61 61 61 60 60 61 64 60 62 67 69 73 72 76 72 71 71 68 68 65 68 69 66 65 63 66 68 67
74 75 76 77 78 77 77 72 70 68 69 70 68 68 66 67 67 63 65 65 65 67 69 63 63 63 74 74 73 76 73 69 73 66 65 70 69 64 66 69 67 65 65
68 65 65 68 68 68 69 68 66 65 65 66 72 74 69 68 66 71 72 70 71 69 70 74 69 67 68 71 76 81 79 78 76 75 73 71 70 71 65 68 70 67 67
67 65 66 67 68 66 64 63 64 64 62 64 64 68 71 76 75 73 75 75 74 73 73 73 76 76 73 72 73 76 78 80 80 84 86 82 77 81 80 72 65 68 66
75 73 71 68 68 68 68 67 68 68 69 68 65 65 68 70 75 81 81 79 79 80 79 79 79 80 78 79 79 80 82 78 81 85 88 90 91 90 84 87 86 91 86
83 81 78 76 76 75 75 74 75 75 74 73 71 67 66 67 68 72 74 78 79 80 80 81 81 82 84 84 84 84 84 83 84 85 84 88 91 92 94 92 94 93 91
89 89 89 86 85 85 86 85 84 83 82 80 79 77 74 72 73 71 71 73 76 82 84 84 84 85 86 88 90 90 90 89 87 89 88 90 90 92 94 94 95 97 91
97 97 97 97 96 94 93 92 93 92 90 89 88 86 84 82 80 78 77 76 74 75 78 78 81 84 86 88 94 93 94 94 94 95 94 93 92 92 94 94 96 96 94
102 101 102 103 102 100 101 99 97 97 99 99 97 95 93 92 89 88 86 85 83 83 81 80 80 81 81 83 88 91 96 99 99 100 101 100 101 99 99 99 98 97 96
107 105 104 105 106 106 107 106 106 106 105 104 105 103 102 101 100 97 94 94 95 94 94 90 89 88 85 84 84 86 89 93 98 102 103 103 104 105 106 105 104 104 104
109 110 111 110 110 110 111 111 110 110 110 111 110 109 107 107 108 106 105 103 101 100 101 100 99 95 93 91 91 90 89 87 88 95 101 104 104 105 108 110 110 109 109
110 112 115 117 117 117 118 118 118 118 117 116 116 115 115 115 114 113 112 110 108 107 107 107 106 105 105 103 99 97 97 96 95 93 93 95 101 106 107 107 107 107 108
106 107 108 110 113 116 119 119 122 124 125 125 125 124 123 122 120 119 117 117 116 113 111 113 112 111 112 112 110 107 106 104 101 100 100 100 100 99 101 107 109 111 114
102 102 102 104 106 108 112 114 114 115 118 120 120 121 120 122 124 125 125 125 124 121 120 118 117 116 115 117 116 116 115 113 112 110 109 106 107 107 105 104 104 106 109
97 97 97 98 101 104 106 107 108 110 111 113 114 116 116 118 119 119 121 123 123 124 121 119 121 123 121 121 120 121 120 120 119 116 116 114 113 113 112 113 111 111 113
94 93 93 93 94 97 98 100 102 105 106 110 111 112 113 113 113 115 117 119 121 122 124 124 123 123 125 125 124 124 123 124 122 123 122 122 122 120 120 120 120 121 120
99 99 99 97 96 97 97 96 96 98 101 106 108 109 110 110 111 112 113 115 117 119 122 124 126 127 129 131 131 129 128 128 128 130 129 128 129 129 130 129 128 128 128
106 105 105 103 103 104 103 102 100 99 99 101 104 108 110 109 110 112 112 113 115 117 119 121 121 124 127 131 133 134 134 133 133 134 134 131 133 131 132 130 134 135 135
101 101 101 103 105 108 107 107 105 103 103 102 101 103 106 108 109 110 112 112 114 116 117 117 118 120 123 126 129 132 133 133 134 135 134 131 137 134 135 135 137 140 141
89 89 89 90 94 99 103 105 105 106 105 104 102 100 102 104 106 106 106 109 112 114 116 116 116 117 120 123 125 127 129 129 129 131 130 130 134 134 133 133 134 136 136
83 83 82 82 84 87 91 95 99 102 104 103 103 102 101 101 102 104 105 107 110 115 114 114 115 117 119 121 123 124 125 124 125 126 129 128 127 128 128 129 132 134 134
Wind_Direction
263 262 262 263 265 259 260 258 254 252 252 245 239 241 243 243 242 240 242 241 242 246 245 244 244 245 246 245 249 250 252 250 247 250 253 253 256 257 256 257 259 258 259
257 260 264 265 265 262 259 256 257 254 249 249 249 248 245 244 242 243 238 240 243 245 246 248 246 245 245 248 248 250 247 251 252 252 251 256 250 254 260 257 256 256 263
261 262 263 262 265 267 263 260 260 258 252 246 246 248 247 244 246 246 244 243 244 247 249 249 248 248 247 251 246 245 247 251 247 245 252 245 249 254 256 257 255 259 260
258 259 260 260 260 259 260 263 262 261 257 251 244 245 244 242 243 247 248 246 244 244 244 246 244 250 250 248 243 242 249 251 252 244 248 247 250 253 251 252 253 259 255
257 258 259 259 259 259 260 261 263 261 253 253 249 243 242 240 242 243 241 242 245 242 241 242 238 241 243 249 250 250 250 252 248 243 246 248 248 250 252 251 254 256 258
260 261 260 258 258 257 259 261 264 258 250 248 250 249 244 242 242 242 243 244 241 236 239 241 240 236 240 243 245 249 248 253 244 242 245 246 247 252 256 255 254 255 256
260 260 258 257 259 261 261 260 258 253 248 245 246 247 248 246 244 244 243 242 242 241 243 239 240 240 237 236 239 244 245 247 243 242 247 246 245 246 252 252 254 254 250
258 259 259 257 256 257 258 255 252 251 247 249 245 243 243 244 246 246 245 244 242 242 242 245 245 242 240 240 241 241 240 240 240 244 246 247 249 250 249 246 248 252 251
257 259 259 259 256 254 252 249 247 246 247 248 249 248 248 247 243 243 245 247 247 246 245 243 243 244 246 243 241 240 241 241 240 239 239 240 241 242 241 242 240 241 242
256 257 257 257 255 251 252 250 248 249 251 252 252 251 250 247 248 248 248 247 248 249 250 247 245 244 244 245 247 245 243 243 243 240 240 241 242 245 242 243 240 245 244
257 257 256 256 254 252 251 251 252 252 253 254 254 254 253 252 251 251 251 251 251 251 250 249 250 248 247 246 246 245 246 248 247 244 241 245 244 246 248 244 239 245 248
258 258 258 256 256 256 254 254 254 253 253 254 254 256 256 256 256 256 254 254 253 254 253 253 252 252 249 248 248 246 245 245 247 248 249 249 248 249 247 247 245 247 250
258 257 257 257 257 257 256 255 256 257 257 256 255 255 256 257 258 258 259 258 259 256 255 256 255 255 254 252 250 248 248 247 246 247 249 248 249 250 250 249 247 246 248
260 259 258 257 257 257 256 255 255 256 256 256 255 256 256 257 258 259 259 260 260 261 261 259 258 256 256 256 254 251 251 250 249 249 248 248 248 250 249 249 250 251 251
259 260 260 258 256 256 256 256 255 256 256 256 256 256 256 256 256 256 257 259 260 259 260 260 259 260 259 257 255 255 254 253 253 252 251 251 251 250 251 251 251 252 253
258 258 258 258 258 258 257 257 256 256 256 256 256 256 256 257 257 256 256 256 256 257 257 257 259 258 258 258 258 258 257 257 256 255 253 252 252 252 253 253 253 253 254
257 257 257 257 256 257 257 257 256 257 257 257 256 257 257 258 257 256 255 256 256 256 256 256 256 257 258 259 259 258 258 258 258 257 257 256 255 253 252 252 253 255 255
258 258 258 258 257 257 258 257 256 257 258 257 257 258 258 259 257 256 256 255 255 255 255 256 256 256 257 257 258 260 260 260 259 258 258 256 256 256 255 254 253 254 253
259 259 259 258 258 258 258 258 258 258 258 258 257 258 258 257 256 257 257 257 256 256 256 256 256 256 256 257 257 257 258 258 259 260 259 259 259 257 257 256 257 256 254
258 258 259 259 258 258 257 256 257 257 258 258 257 257 257 257 256 255 256 256 256 256 256 256 255 255 254 255 256 257 257 257 257 257 257 258 259 258 258 259 257 257 257
260 260 259 258 257 257 257 257 257 257 257 257 257 257 257 257 257 255 254 254 255 255 255 255 255 255 255 255 256 256 255 255 255 256 256 256 257 258 258 259 258 259 258
262 261 260 259 259 258 258 257 257 257 257 257 257 258 257 257 257 257 256 255 254 254 254 254 254 254 254 255 256 256 255 255 256 257 256 256 257 258 258 258 257 257 257
260 261 261 260 259 258 257 257 256 257 257 257 257 256 257 257 257 256 256 255 255 254 254 254 254 254 253 254 255 256 256 256 256 256 256 256 257 257 257 257 258 258 257
260 260 259 259 258 257 257 257 257 257 257 258 258 258 257 257 256 256 256 256 256 256 255 255 255 255 254 255 255 256 256 256 256 256 257 257 258 257 256 256 257 257 257
260 261 261 260 258 257 256 255 255 256 256 257 258 259 259 258 257 257 257 257 257 257 257 257 257 256 256 256 255 256 256 257 257 258 257 256 257 257 257 257 257 257 256
260 261 262 262 261 259 257 256 255 256 256 257 257 258 258 258 258 258 257 257 257 257 258 258 258 257 257 257 257 257 258 258 258 259 259 258 257 257 257 257 257 257 256
Height
10692 10695 10697 10699 10701 10703 10705 10707 10709 10711 10713 10715 10718 10722 10725 10728 10730 10735 10741 10746 10753 10755 10760 10766 10773 10777 10783 10787 10790 10793 10795 10799 10803 10807 10811 10814 10818 10821 10823 10827 10831 10834 10836
10680 10682 10685 10687 10690 10692 10695 10697 10699 10701 10702 10704 10706 10708 10710 10714 10717 10720 10725 10733 10740 10741 10745 10751 10759 10762 10767 10771 10777 10780 10784 10787 10790 10794 10799 10804 10808 10811 10814 10817 10821 10825 10828
10667 10670 10672 10674 10677 10679 10681 10684 10687 10689 10692 10694 10695 10698 10700 10702 10704 10706 10712 10718 10725 10726 10730 10734 10739 10746 10749 10756 10762 10768 10772 10775 10778 10783 10788 10792 10796 10800 10804 10807 10810 10814 10819
10653 10656 10658 10661 10663 10666 10668 10670 10673 10675 10678 10681 10683 10685 10689 10692 10695 10695 10698 10702 10708 10712 10716 10721 10728 10731 10734 10739 10745 10753 10757 10761 10767 10771 10776 10780 10783 10789 10793 10796 10799 10802 10806
10637 10640 10643 10646 10648 10650 10652 10655 10658 10661 10662 10666 10669 10672 10675 10679 10682 10684 10687 10690 10694 10698 10702 10708 10714 10719 10723 10726 10730 10736 10744 10749 10755 10759 10762 10766 10771 10775 10779 10782 10786 10790 10792
10618 10621 10625 10628 10630 10631 10635 10637 10640 10643 10646 10650 10653 10658 10661 10664 10668 10671 10674 10677 10682 10686 10691 10694 10700 10705 10709 10714 10717 10722 10728 10732 10739 10745 10748 10751 10756 10760 10764 10767 10772 10776 10780
10599 10601 10604 10608 10611 10613 10616 10618 10621 10623 10628 10632 10636 10640 10645 10650 10654 10657 10660 10663 10667 10672 10676 10680 10686 10691 10695 10699 10703 10708 10711 10717 10726 10729 10731 10734 10740 10746 10750 10753 10758 10762 10767
10580 10581 10585 10588 10591 10594 10597 10599 10603 10606 10609 10614 10618 10622 10628 10633 10637 10641 10645 10648 10652 10657 10661 10664 10668 10675 10680 10684 10687 10691 10695 10701 10710 10713 10716 10719 10724 10731 10737 10741 10745 10749 10752
10563 10565 10568 10571 10573 10576 10578 10582 10586 10589 10593 10597 10601 10605 10610 10615 10617 10623 10627 10632 10637 10641 10644 10648 10652 10657 10662 10667 10671 10676 10678 10683 10690 10696 10700 10703 10709 10716 10722 10727 10730 10733 10736
10545 10548 10551 10554 10557 10559 10562 10565 10569 10572 10576 10580 10583 10587 10592 10596 10600 10605 10608 10614 10619 10622 10626 10629 10634 10641 10645 10649 10653 10656 10662 10667 10671 10677 10681 10684 10690 10697 10704 10709 10713 10715 10718
10523 10527 10532 10535 10538 10541 10543 10547 10550 10554 10557 10560 10565 10569 10573 10578 10582 10585 10591 10595 10599 10602 10606 10611 10616 10621 10626 10631 10633 10639 10644 10648 10653 10657 10662 10667 10671 10676 10682 10687 10691 10698 10701
10500 10505 10509 10512 10515 10519 10522 10525 10529 10533 10537 10541 10545 10549 10554 10559 10562 10567 10572 10575 10580 10583 10585 10591 10596 10599 10605 10611 10613 10618 10623 10628 10632 10637 10642 10647 10652 10657 10657 10662 10671 10678 10682
10476 10479 10481 10485 10491 10496 10500 10504 10508 10512 10517 10520 10524 10528 10532 10537 10541 10546 10551 10555 10559 10564 10566 10572 10574 10579 10583 10588 10590 10597 10600 10605 10610 10615 10620 10626 10631 10633 10637 10642 10649 10654 10660
10446 10450 10454 10459 10465 10470 10474 10478 10481 10486 10491 10495 10500 10504 10508 10513 10519 10524 10528 10532 10536 10539 10544 10551 10553 10557 10562 10566 10569 10573 10577 10582 10587 10593 10597 10602 10607 10611 10614 10619 10624 10630 10636
10416 10422 10426 10430 10434 10439 10445 10450 10455 10459 10464 10469 10473 10478 10482 10487 10492 10498 10504 10509 10513 10517 10521 10527 10529 10534 10539 10542 10546 10550 10555 10558 10563 10567 10572 10577 10582 10587 10589 10593 10599 10605 10611
10387 10389 10394 10400 10405 10409 10414 10419 10424 10429 10435 10440 10445 10449 10454 10460 10465 10470 10475 10481 10485 10490 10495 10501 10505 10510 10513 10517 10523 10528 10531 10535 10538 10542 10546 10551 10555 10560 10565 10569 10574 10580 10586
10352 10357 10362 10367 10372 10377 10381 10386 10390 10396 10401 10407 10412 10418 10423 10428 10433 10439 10443 10449 10456 10462 10467 10470 10478 10482 10485 10489 10496 10502 10504 10509 10512 10517 10522 10526 10530 10533 10538 10544 10547 10552 10558
10321 10325 10330 10334 10339 10340 10344 10350 10356 10362 10367 10372 10377 10383 10389 10393 10399 10405 10410 10416 10423 10430 10437 10439 10445 10452 10456 10461 10466 10472 10475 10480 10485 10489 10495 10500 10503 10506 10511 10516 10520 10524 10529
10289 10294 10299 10302 10306 10308 10312 10316 10321 10326 10329 10333 10340 10346 10352 10357 10362 10369 10375 10381 10387 10394 10403 10410 10408 10417 10423 10428 10436 10441 10444 10451 10455 10459 10463 10469 10473 10478 10483 10488 10492 10496 10500
10259 10264 10269 10272 10274 10277 10280 10284 10289 10293 10296 10300 10305 10309 10315 10320 10324 10332 10338 10343 10350 10356 10363 10372 10377 10378 10388 10391 10400 10404 10414 10418 10422 10427 10430 10436 10440 10446 10452 10456 10463 10467 10469
10234 10238 10240 10243 10244 10246 10250 10255 10258 10262 10264 10267 10271 10275 10279 10284 10289 10294 10301 10306 10312 10319 10325 10332 10340 10345 10347 10354 10361 10368 10376 10381 10388 10391 10397 10400 10408 10414 10418 10422 10426 10430 10435
10204 10206 10209 10214 10218 10220 10222 10225 10228 10230 10233 10235 10238 10241 10245 10251 10255 10261 10266 10271 10277 10282 10286 10294 10301 10307 10310 10314 10319 10328 10336 10343 10352 10355 10360 10369 10373 10377 10381 10385 10390 10396 10399
10171 10175 10179 10183 10186 10187 10191 10194 10199 10201 10202 10204 10207 10210 10213 10216 10222 10225 10230 10236 10241 10245 10250 10256 10266 10270 10274 10275 10281 10288 10292 10302 10310 10314 10318 10329 10330 10342 10343 10350 10352 10356 10361
10138 10141 10146 10149 10150 10153 10157 10161 10167 10171 10172 10173 10176 10180 10183 10185 10188 10194 10197 10202 10205 10209 10215 10223 10230 10233 10237 10240 10243 10244 10250 10257 10265 10270 10275 10292 10286 10298 10302 10311 10314 10317 10320
10109 10112 10114 10115 10117 10120 10125 10129 10135 10138 10140 10142 10146 10149 10152 10154 10156 10163 10169 10168 10173 10176 10179 10186 10193 10197 10198 10201 10204 10207 10212 10218 10225 10228 10236 10246 10248 10255 10264 10270 10272 10274 10279
10083 10085 10087 10088 10089 10090 10094 10099 10103 10106 10107 10112 10115 10116 10120 10123 10124 10129 10134 10137 10140 10137 10145 10152 10157 10159 10160 10161 10165 10170 10176 10182 10187 10192 10190 10199 10207 10215 10225 10228 10227 10230 10238